#timestamp,LO_Frequency,Hit,StdDev 
1532390415.8,286047000.6,N
1532390435.6,286047000.5,N
1532390455.4,286046999.9,N
1532390475.3,286047002.4,Y
1532390495.1,286047000.9,P
1532390515.9,286047000.0,N
1532390535.7,286047001.0,N
1532390555.5,286047000.9,N
1532390575.4,286047000.8,N
1532390595.2,286046999.9,N
1532390615.0,286047002.3,Y
1532390616.0,286047002.3,P
1532390635.8,286047000.6,N
1532390655.6,286046998.1,N
1532390675.5,286046999.9,N
1532390695.3,286047002.7,N
1532390715.1,286046999.9,N
1532390735.9,286047000.4,N
1532390755.7,286047000.0,N
1532390775.6,286047000.2,N
1532390795.4,286047002.3,N
1532390815.2,286047002.7,N
1532390835.1,286047000.2,N
1532390836.0,286047000.2,N
1532390855.8,286047000.3,N
1532390875.6,286047001.2,N
1532390895.5,286046999.8,N
1532390915.3,286047001.6,N
1532390935.2,286047002.8,N
1532390955.9,286047002.8,N
1532390975.7,286047000.4,N
1532390995.6,286047000.9,N
1532391015.4,286047000.7,N
1532391035.2,286047001.2,N
1532391055.1,286046998.1,N
1532391056.0,286046998.1,N
1532391075.8,286047000.7,N
1532391095.7,286047001.2,N
1532391115.5,286046998.6,N
1532391135.3,286046998.5,N
1532391155.2,286046999.3,N
1532391175.0,286046999.0,N
1532391175.9,286046999.0,N
1532391195.7,286046999.1,N
1532391215.6,286046999.3,N
1532391235.4,286046999.2,N
1532391255.3,286046997.8,N
1532391275.1,286046994.9,Y
1532391276.0,286046994.9,P
1532391295.8,286046997.6,N
1532391315.7,286046997.6,N
1532391335.5,286046998.0,N
1532391355.3,286046995.3,N
1532391375.2,286046995.7,N
1532391395.0,286046996.2,N
1532391395.9,286046996.2,N
1532391415.8,286046996.2,N
1532391435.6,286046996.0,N
1532391455.4,286046996.3,N
1532391475.3,286046996.1,N
1532391495.1,286046995.7,Y
1532391515.9,286046998.8,P
1532391535.7,286046996.5,P
1532391555.5,286046999.0,N
1532391575.4,286046999.2,N
1532391595.2,286046999.5,N
1532391615.0,286046999.5,N
1532391616.0,286046999.5,N
1532391635.8,286046996.5,N
1532391655.6,286046999.1,N
1532391675.5,286046999.1,N
1532391695.3,286046998.8,N
1532391715.1,286046998.5,N
1532391735.9,286046999.0,N
1532391755.7,286046996.9,N
1532391775.5,286046999.1,N
1532391795.4,286046999.3,N
1532391815.2,286046999.0,N
1532391835.1,286046998.9,N
1532391836.0,286046998.9,N
1532391855.8,286046996.6,Y
1532391875.6,286047001.2,P
1532391925.5,286046998.3,E
1532391935.4,286047001.1,N
1532391955.3,286047000.7,P
1532391975.1,286047000.5,N
1532391995.8,286046999.9,N
1532392015.7,286046999.9,N
1532392035.5,286047000.5,N
1532392055.3,286047000.5,N
1532392075.2,286047000.6,N
1532392095.0,286047000.4,N
1532392095.9,286047000.4,N
1532392115.8,286047000.9,N
1532392135.6,286047000.8,N
1532392155.4,286046998.5,Y
1532392175.3,286046996.5,P
1532392195.1,286046999.4,N
1532392215.9,286046998.1,N
1532392235.7,286046998.3,N
1532392255.5,286046999.1,N
1532392275.4,286046996.5,N
1532392295.2,286046997.0,N
1532392315.0,286046999.1,N
1532392315.9,286046999.1,N
1532392335.8,286046999.0,N
1532392355.6,286046999.2,N
1532392375.5,286046996.9,N
1532392395.3,286046997.8,N
1532392415.1,286046997.9,N
1532392435.9,286046995.0,Y
1532392455.7,286046999.0,P
1532392475.6,286046998.1,P
1532392495.4,286046998.5,P
1532392515.2,286046998.7,Y
1532392535.1,286047000.3,P
1532392536.0,286047000.3,N
1532392555.8,286047000.1,N
1532392575.6,286046999.9,N
1532392595.5,286047002.5,Y
1532392615.3,286047002.5,P
1532392635.2,286047002.2,N
1532392655.9,286047002.5,N
1532392675.7,286047002.8,N
1532392695.6,286047000.6,N
1532392715.4,286047000.4,N
1532392735.3,286047000.3,N
1532392755.1,286047000.7,N
1532392756.0,286047000.7,N
1532392775.8,286047000.4,N
1532392795.7,286047000.5,N
1532392815.5,286047000.4,N
1532392835.4,286047000.5,N
1532392855.2,286046998.2,N
1532392875.0,286047001.0,N
1532392875.9,286047001.0,N
1532392895.8,286047000.5,N
1532392915.6,286047000.7,N
1532392935.4,286047000.3,N
1532392955.3,286047000.1,N
1532392975.1,286047002.8,N
1532392995.9,286047000.1,N
1532393015.7,286047002.1,N
1532393035.5,286047002.5,N
1532393055.4,286046999.8,N
1532393075.2,286047001.1,N
1532393095.0,286046998.1,N
1532393095.9,286046998.1,N
1532393115.8,286046998.2,N
1532393135.6,286047000.5,N
1532393155.5,286047001.0,N
1532393175.3,286046998.1,N
1532393195.1,286046998.2,N
1532393215.9,286047000.6,N
1532393235.7,286046998.6,N
1532393255.6,286046998.2,N
1532393275.4,286046998.6,N
1532393295.2,286047000.9,N
1532393315.1,286046998.4,N
1532393316.0,286046998.4,N
1532393335.8,286046998.1,N
1532393355.7,286047001.1,N
1532393375.5,286047002.7,N
1532393395.3,286047002.7,N
1532393415.2,286046999.7,N
1532393435.0,286046999.9,N
1532393435.9,286046999.9,N
1532393455.7,286047001.1,N
1532393475.6,286047001.0,N
1532393495.4,286047000.4,N
1532393515.3,286047000.7,N
1532393535.1,286047000.6,N
1532393536.0,286047000.6,N
1532393555.8,286047000.8,N
1532393575.7,286046998.1,N
1532393595.5,286047000.8,N
1532393615.3,286047000.4,N
1532393635.2,286047000.8,N
1532393655.0,286046998.4,N
1532393655.9,286046998.4,N
1532393675.8,286046998.3,N
1532393695.6,286046999.3,N
1532393715.4,286046999.5,N
1532393735.3,286046998.7,N
1532393755.1,286046999.2,N
1532393775.9,286046999.3,N
1532393795.7,286046998.8,N
1532393815.5,286046999.0,N
1532393835.4,286047001.2,N
1532393855.2,286046998.6,N
1532393875.0,286047001.2,N
1532393875.9,286047001.2,N
1532393895.8,286047001.0,N
1532393915.6,286047001.1,N
1532393935.5,286047000.6,N
1532393955.3,286047001.0,N
1532393975.1,286046998.5,N
1532393995.9,286046998.2,N
